Location: Lake Lucerne
(45.5315°N, 88.8489°W)
Time: 23:22:37
(UTC-05:00)

N. Korean satellite - Visible Passes

Search period start: 25 September 2018 00:00
Search period end: 05 October 2018 00:00
Orbit: 458 x 511 km, 97.2° (Epoch: 24 September)

Date Brightness Start Highest point End Pass type
(mag) Time Alt. Az. Time Alt. Az. Time Alt. Az.
25 Sep 9.9 19:29:23 10° SW 19:31:40 16° W 19:33:59 10° NW visible
29 Sep 9.8 19:25:08 10° SW 19:27:39 18° W 19:30:13 10° NW visible
02 Oct 10.5 19:47:23 10° WSW 19:48:12 11° W 19:49:01 10° WNW visible
03 Oct 9.7 19:20:52 10° SW 19:23:36 20° W 19:26:22 10° NW visible
04 Oct 8.4 18:55:41 10° SSW 18:59:04 38° W 19:02:33 10° NNW visible
